Location: Newark
(58.8333°N, 23.5833°E)
Time: 03:04:34
(UTC+00:00)

Tiros 1 despin weight - Pass Details

Date: 17 November 2019
Orbit: 594 x 642 km, 48.2° (Epoch: 14 December)

Event Time Altitude Azimuth Distance (km) Brightness Sun altitude
Rises 17:07:11 0° 260° (W) 2,854 ? -23.5°
Reaches altitude 10° 17:10:26 10° 235° (SW) 1,958 ? -23.9°
Maximum altitude 17:12:45 14° 204° (SSW) 1,714 ? -24.2°
Enters shadow 17:14:22 12° 181° (S) 1,841 ? -24.4°
Drops below altitude 10° 17:15:05 10° 173° (S) 1,971 - -24.5°
Sets 17:18:23 0° 148° (SSE) 2,885 - -24.9°
